Погода в Большой Халани

Россия / Белгородская область     50°55′24″N   37°25′31″E
темп.,
°C
ветер,
м/с
пор.,
м/с
влажн.,
%
обл.,
%
осадки,
мм/ч
давл.,
гПа
погр.,
м
14 июня, пн
пн1400:00+16юз11875 0.0 101011
03:00+15юв11895 0.0 101111
06:00+17вюв11865 0.1 101238
09:00+21в22764 0.1 1013431
12:00+24в225931 1.8 10131138
15:00+24всв226146 3.9 10141250
18:00+23вюв1275100 4.7 101353
21:00+19св118015 5.0 101411
15 июня, вт
вт1500:00+17св228631 0.0 101417
03:00+16св22895 0.0 101312
06:00+17св23895 0.0 101390
09:00+22св35783 0.1 1013576
12:00+24всв446621 0.6 10121354
15:00+25всв44596 0.9 10111718
18:00+24всв347376 0.4 1010207
21:00+19св1284100 0.9 101011
16 июня, ср
ср1600:00+17всв118785 0.9 101011
03:00+17ссв118788 0.9 101011
06:00+19с1187100 0.0 101045
09:00+22св1177100 0.1 1011341
12:00+25всв116321 0.1 1011971
15:00+26з115995 2.8 10121220
18:00+24с237363 0.1 1012353
21:00+20св478970 0.7 1014114
17 июня, чт
чт1700:00+17св410962 0.0 1016236
03:00+17св4109710 0.0 1017246
06:00+17св512940 0.0 1018442
09:00+20всв710750 0.0 1019730
12:00+22св78590 0.0 10201041
15:00+22св78550 0.0 10211279
18:00+21св69690 0.0 1022935
21:00+16св410870 0.0 1023204
18 июня, пт
пт1800:00+14св410840 0.0 1024203
03:00+12св49915 0.0 1025173
06:00+14всв310870 0.0 1026275
09:00+19всв58699 0.0 1027601
12:00+21всв6759100 0.0 10261230
15:00+22всв57570 0.0 10261519
18:00+21всв46680 0.0 1026817
21:00+16всв36830 0.0 102790